TimePDT,TemperatureF,Dew PointF,Humidity,Sea Level PressureIn,VisibilityMPH,Wind Direction,Wind SpeedMPH,Gust SpeedMPH,PrecipitationIn,Events,Conditions,WindDirDegrees,DateUTC
12:53 AM,46.9,46.0,97,29.97,10.0,SE,3.5,-,0.00,,Light Drizzle,140,2013-05-08 07:53:00
1:53 AM,44.1,43.0,96,29.98,8.0,Calm,Calm,-,0.00,,Light Drizzle,0,2013-05-08 08:53:00
2:08 AM,42.8,42.8,100,30.03,1.8,Calm,Calm,-,0.00,,Light Drizzle,0,2013-05-08 09:08:00
2:20 AM,41.0,41.0,100,30.04,0.8,Calm,Calm,-,0.00,,Light Drizzle,0,2013-05-08 09:20:00
2:36 AM,39.2,39.2,100,30.03,0.5,Calm,Calm,-,0.00,Fog,Light Drizzle,0,2013-05-08 09:36:00
2:46 AM,39.2,39.2,100,30.03,0.2,Calm,Calm,-,0.00,Fog,Light Drizzle,0,2013-05-08 09:46:00
2:53 AM,39.9,39.9,100,30.00,0.2,Calm,Calm,-,0.00,Fog,Light Drizzle,0,2013-05-08 09:53:00
3:03 AM,41.0,39.2,93,30.04,0.8,NE,3.5,-,0.00,,Light Drizzle,40,2013-05-08 10:03:00
3:12 AM,39.2,39.2,100,30.04,0.2,NE,4.6,-,0.00,Fog,Light Drizzle,40,2013-05-08 10:12:00
3:21 AM,39.2,39.2,100,30.04,0.5,NE,3.5,-,0.00,Fog,Light Drizzle,50,2013-05-08 10:21:00
3:33 AM,39.2,39.2,100,30.04,1.0,Calm,Calm,-,0.00,,Light Drizzle,0,2013-05-08 10:33:00
3:46 AM,41.0,41.0,100,30.04,3.0,Calm,Calm,-,0.00,,Light Drizzle,0,2013-05-08 10:46:00
3:53 AM,42.1,41.0,96,30.00,6.0,Calm,Calm,-,0.00,,Light Drizzle,0,2013-05-08 10:53:00
4:53 AM,43.0,43.0,100,30.01,9.0,Calm,Calm,-,0.00,,Light Drizzle,0,2013-05-08 11:53:00
5:04 AM,42.8,42.8,100,30.05,4.0,Calm,Calm,-,0.00,,Light Drizzle,0,2013-05-08 12:04:00
5:12 AM,42.8,42.8,100,30.05,1.8,Calm,Calm,-,0.00,,Light Drizzle,0,2013-05-08 12:12:00
5:23 AM,42.8,42.8,100,30.05,0.5,Calm,Calm,-,0.00,Fog,Light Drizzle,0,2013-05-08 12:23:00
5:40 AM,39.2,39.2,100,30.05,0.5,Calm,Calm,-,0.00,Fog,Light Drizzle,0,2013-05-08 12:40:00
5:48 AM,39.2,39.2,100,30.05,0.2,Calm,Calm,-,0.00,Fog,Light Drizzle,0,2013-05-08 12:48:00
5:53 AM,39.0,39.0,100,30.02,0.2,Calm,Calm,-,0.00,Fog,Light Drizzle,0,2013-05-08 12:53:00
5:59 AM,39.2,39.2,100,30.06,0.2,Calm,Calm,-,0.00,Fog,Light Drizzle,0,2013-05-08 12:59:00
6:53 AM,41.0,41.0,100,30.03,0.2,Calm,Calm,-,0.00,Fog,Light Drizzle,0,2013-05-08 13:53:00
7:18 AM,44.6,44.6,100,30.08,0.5,Calm,Calm,-,0.00,Fog,Light Drizzle,0,2013-05-08 14:18:00
7:33 AM,46.4,46.4,100,30.08,1.0,Calm,Calm,-,0.00,,Mist,0,2013-05-08 14:33:00
7:38 AM,46.4,46.4,100,30.08,1.0,Calm,Calm,-,0.00,,Scattered Clouds,0,2013-05-08 14:38:00
7:43 AM,46.4,46.4,100,30.08,6.0,Calm,Calm,-,0.00,,Scattered Clouds,0,2013-05-08 14:43:00
7:53 AM,48.9,48.0,97,30.03,5.0,Calm,Calm,-,0.00,Fog,Patches of Fog,0,2013-05-08 14:53:00
8:29 AM,50.0,50.0,100,30.09,10.0,SSE,3.5,-,N/A,,Scattered Clouds,150,2013-05-08 15:29:00
8:44 AM,51.8,50.0,94,30.10,10.0,South,4.6,-,N/A,,Mostly Cloudy,190,2013-05-08 15:44:00
8:50 AM,51.8,50.0,94,30.09,10.0,South,4.6,-,N/A,,Scattered Clouds,190,2013-05-08 15:50:00
8:53 AM,51.1,48.9,92,30.04,10.0,South,3.5,-,N/A,,Scattered Clouds,170,2013-05-08 15:53:00
9:00 AM,51.8,50.0,94,30.10,10.0,South,5.8,-,N/A,,Mostly Cloudy,170,2013-05-08 16:00:00
9:04 AM,51.8,50.0,94,30.10,10.0,SSE,4.6,-,N/A,,Scattered Clouds,150,2013-05-08 16:04:00
9:14 AM,51.8,51.8,100,30.10,10.0,SSW,3.5,-,N/A,,Partly Cloudy,200,2013-05-08 16:14:00
9:53 AM,55.9,51.1,84,30.04,10.0,SSE,6.9,-,N/A,,Partly Cloudy,150,2013-05-08 16:53:00
10:53 AM,59.0,51.1,75,30.04,10.0,SSE,4.6,-,N/A,,Scattered Clouds,160,2013-05-08 17:53:00
11:53 AM,-9999,-9999,N/A,30.11,10.0,ESE,8.1,-,N/A,,Scattered Clouds,110,2013-05-08 18:53:00
12:53 PM,64.0,46.9,54,30.02,10.0,Variable,4.6,-,N/A,,Scattered Clouds,0,2013-05-08 19:53:00
1:53 PM,66.0,51.1,59,30.02,10.0,SE,5.8,-,N/A,Thunderstorm,Mostly Cloudy,140,2013-05-08 20:53:00
2:24 PM,64.4,48.2,56,30.08,10.0,Calm,Calm,-,0.00,,Mostly Cloudy,0,2013-05-08 21:24:00
2:50 PM,66.2,50.0,56,30.08,10.0,Calm,Calm,-,0.00,Thunderstorm,Partly Cloudy,0,2013-05-08 21:50:00
2:53 PM,66.9,50.0,54,30.02,10.0,South,3.5,-,0.00,Thunderstorm,Partly Cloudy,170,2013-05-08 21:53:00
3:50 PM,64.4,46.4,52,30.07,10.0,WNW,12.7,-,N/A,Thunderstorm,Thunderstorm,300,2013-05-08 22:50:00
3:53 PM,64.0,46.9,54,30.01,10.0,WNW,13.8,-,N/A,Thunderstorm,Thunderstorm,300,2013-05-08 22:53:00
4:23 PM,57.2,46.4,67,30.09,10.0,South,19.6,24.2,0.00,Rain-Thunderstorm,Light Thunderstorms and Rain,170,2013-05-08 23:23:00
4:38 PM,53.6,46.4,77,30.11,5.0,SE,24.2,35.7,0.00,Rain-Thunderstorm,Light Thunderstorms and Rain,130,2013-05-08 23:38:00
4:53 PM,54.0,46.9,77,30.09,4.0,Variable,3.5,-,0.05,Rain-Thunderstorm,Thunderstorms and Rain,0,2013-05-08 23:53:00
5:33 PM,53.6,50.0,88,30.14,10.0,NNW,13.8,-,0.02,Rain,Light Rain,330,2013-05-09 00:33:00
5:43 PM,53.6,50.0,88,30.13,10.0,WNW,13.8,-,0.02,Rain-Thunderstorm,Light Rain,290,2013-05-09 00:43:00
5:53 PM,53.1,48.9,86,30.10,10.0,WNW,17.3,-,0.02,Rain,Light Rain,290,2013-05-09 00:53:00
6:53 PM,53.1,50.0,89,30.11,10.0,NNW,4.6,-,0.00,,Mostly Cloudy,340,2013-05-09 01:53:00
7:53 PM,52.0,48.9,89,30.10,10.0,Calm,Calm,-,N/A,,Mostly Cloudy,0,2013-05-09 02:53:00
8:53 PM,53.1,48.9,86,30.12,10.0,Calm,Calm,-,N/A,,Overcast,0,2013-05-09 03:53:00
9:53 PM,51.1,48.9,92,30.12,10.0,WSW,3.5,-,N/A,,Partly Cloudy,250,2013-05-09 04:53:00
10:53 PM,50.0,48.0,93,30.11,10.0,West,3.5,-,N/A,,Clear,280,2013-05-09 05:53:00
11:53 PM,48.9,46.9,93,30.17,10.0,SSE,4.6,-,N/A,,Partly Cloudy,150,2013-05-09 06:53:00